EHI
0 0 0 0 0 0 0 0 0 0 0 0 0 1 4 5 4 8 17 26 30 33 41 52 56 54 53 56 60 58 56 54 49 43 39 33 26 18 10 6 5 5 5 6
0 0 0 0 0 0 0 0 0 0 0 0 0 1 2 3 4 6 13 20 24 29 41 55 62 63 63 64 64 61 58 57 56 50 42 35 27 19 12 9 10 8 6 5
0 0 0 0 0 0 0 0 0 0 0 0 1 0 0 1 2 5 9 13 17 25 39 56 68 71 70 68 67 65 64 64 63 57 46 37 29 21 14 13 14 14 10 7
0 0 0 0 0 0 0 0 0 0 0 0 0 0 0 1 2 5 9 13 17 23 34 51 66 69 67 65 63 65 67 68 67 60 49 40 31 22 16 15 17 16 13 10
0 0 0 0 0 0 0 0 0 0 0 0 0 0 0 1 2 5 10 14 17 22 30 43 56 62 62 60 59 61 66 69 67 61 53 44 34 26 21 19 19 18 15 12
0 0 0 0 0 0 0 0 0 0 0 0 0 0 0 1 1 3 6 10 13 18 27 38 49 57 60 58 57 58 61 63 62 58 52 44 38 33 28 24 22 20 16 13
0 0 0 0 0 0 0 0 0 0 0 0 0 0 1 1 1 2 5 9 12 18 26 35 44 53 55 54 53 52 51 52 53 51 45 40 38 36 31 26 21 17 14 14
0 0 0 0 0 0 0 0 0 0 0 0 0 1 1 1 1 3 6 11 16 22 27 33 40 44 45 45 45 43 42 42 42 41 38 35 34 33 29 24 19 14 12 13
0 0 0 0 0 0 0 0 0 0 0 0 0 1 1 1 1 2 5 11 19 25 29 32 36 38 36 36 36 34 34 34 33 33 32 32 30 26 23 21 19 17 14 12
0 0 0 0 0 0 0 0 0 0 0 0 0 0 0 0 0 2 6 12 19 25 29 31 34 35 33 32 30 28 29 30 29 29 29 27 24 19 16 17 19 18 15 11
0 0 0 0 0 0 0 0 0 0 0 0 0 0 0 0 1 4 8 14 19 23 27 29 30 31 31 29 27 27 29 29 27 26 24 21 18 13 12 14 15 15 12 10
0 0 0 0 0 0 0 0 0 0 0 0 0 0 0 1 2 5 9 14 18 21 23 24 26 28 30 30 28 27 27 26 24 22 19 17 14 11 10 10 11 11 10 9
0 0 0 0 0 0 0 0 0 0 0 0 0 0 1 2 4 6 9 12 16 20 21 22 25 29 31 30 28 26 24 23 22 19 15 13 11 10 9 8 8 8 8 7
0 0 0 0 0 0 0 0 0 0 0 0 0 0 1 4 7 9 11 12 15 18 20 22 26 29 30 28 24 23 22 22 21 18 13 10 9 8 7 6 6 6 6 6
0 0 0 0 0 0 0 0 0 0 0 0 0 1 4 8 12 15 16 16 15 17 18 20 23 25 25 23 21 20 21 21 21 17 12 10 9 6 5 4 5 5 5 5
0 0 0 0 0 0 0 0 0 0 0 0 0 3 9 13 15 18 20 18 17 18 18 16 17 19 20 20 20 20 20 20 19 15 12 12 10 6 4 4 5 5 6 6
0 0 0 0 0 0 0 0 0 0 1 1 2 7 14 16 15 18 19 17 16 18 18 14 13 14 16 18 20 20 19 18 16 13 12 12 10 6 3 4 5 5 6 8
0 0 0 0 0 0 0 0 0 1 2 2 5 10 14 15 15 15 15 14 13 15 16 15 14 14 17 19 21 21 19 17 15 12 11 11 9 5 3 4 5 5 6 7
1 1 0 0 0 0 0 0 0 1 2 3 6 11 13 13 12 11 12 11 11 12 14 14 14 15 18 22 24 23 21 19 15 11 9 8 7 4 3 4 5 6 6 7
1 1 0 0 0 0 0 0 0 2 3 3 6 10 12 12 12 12 11 10 10 11 12 13 13 13 15 19 21 21 20 19 16 11 7 6 5 5 5 5 6 6 8 8
1 0 0 0 0 0 0 1 3 4 6 6 7 11 14 16 17 15 13 11 12 13 12 12 11 11 11 13 15 15 15 15 13 10 7 5 6 6 6 6 7 8 9 10
1 1 1 0 0 0 2 4 7 10 12 11 9 12 16 18 18 16 14 14 15 15 13 11 11 11 12 13 11 9 8 9 9 8 6 4 4 4 4 4 6 9 9 9
2 2 2 1 1 1 3 6 8 11 13 11 8 10 13 14 13 12 11 13 15 15 14 11 10 11 12 13 11 8 6 7 7 6 4 2 1 1 1 2 4 7 7 6
2 3 3 2 2 2 2 3 6 7 8 8 7 8 9 10 9 8 9 11 13 14 13 12 10 9 9 9 9 7 6 6 6 4 3 1 0 0 0 1 3 4 4 4
2 3 4 4 3 2 1 1 4 6 6 6 6 6 6 7 7 8 8 10 12 13 12 11 8 6 5 5 5 5 5 5 3 2 1 0 0 0 0 1 2 3 3 2
2 3 5 4 3 2 2 2 4 6 6 6 6 5 4 5 7 9 9 10 12 12 11 9 6 4 4 4 3 4 4 3 2 1 0 0 0 0 0 1 2 2 2 1
Wind_Speed
14 14 15 16 17 10 7 10 10 7 4 7 9 8 6 5 7 9 10 11 12 12 14 14 14 15 15 15 16 15 15 14 12 10 10 9 9 9 8 8 9 9 9 8
12 17 16 12 12 11 11 11 10 6 4 7 7 8 6 6 7 7 9 10 11 11 13 14 15 15 16 16 16 15 15 15 14 11 10 9 9 8 8 8 9 10 10 9
18 9 13 13 14 15 14 13 10 7 5 7 8 10 8 7 6 7 8 8 10 11 13 15 15 15 15 16 17 14 15 15 15 13 9 8 7 7 8 9 9 11 11 10
16 8 12 16 16 15 14 11 9 8 9 8 8 9 9 8 8 8 8 8 9 10 12 13 14 15 15 15 14 15 15 15 15 14 12 13 11 11 11 10 9 11 12 11
12 13 15 16 15 15 9 7 10 10 10 9 9 10 7 8 8 8 7 8 8 9 11 12 13 14 14 14 13 13 14 15 15 15 14 14 13 11 9 10 11 11 11 12
10 11 14 13 12 13 8 8 8 8 10 12 10 10 7 6 6 5 6 6 6 8 9 10 11 11 11 12 12 12 14 14 15 16 16 16 16 13 12 12 11 11 9 10
13 13 12 11 13 15 14 12 9 11 10 9 7 9 4 3 2 2 4 5 6 7 8 9 10 10 11 12 12 12 13 13 15 15 15 16 16 15 14 13 12 10 9 9
15 16 16 13 15 14 18 17 10 8 10 8 7 8 3 4 3 2 3 4 5 6 7 7 8 9 9 11 11 11 12 13 14 15 14 14 15 12 11 13 11 11 9 9
12 11 13 14 14 14 18 16 12 8 6 6 8 5 5 5 5 5 5 5 6 6 6 6 7 7 8 9 9 11 11 11 12 13 13 13 14 13 12 11 11 9 9 8
8 9 12 12 13 13 14 14 9 10 8 9 8 8 6 9 8 7 6 5 5 6 6 6 6 6 6 6 7 8 9 9 10 11 11 10 12 12 12 10 11 11 11 10
10 9 11 13 15 17 14 14 12 11 9 8 7 5 3 4 5 6 6 5 6 6 7 6 5 5 5 6 6 7 8 8 8 9 9 9 10 11 11 10 11 11 10 11
11 9 10 13 9 10 15 14 14 11 9 8 6 4 6 4 5 5 6 6 6 6 6 6 6 6 5 5 6 6 6 7 7 8 8 9 9 9 10 10 10 10 11 11
10 8 10 12 11 10 14 14 14 12 9 9 9 4 8 6 6 6 7 7 6 6 6 6 6 5 5 4 4 5 6 6 6 7 8 8 8 8 8 9 9 9 10 11
8 9 11 11 11 14 14 14 14 14 11 10 10 5 9 8 7 7 7 7 7 7 7 6 5 5 4 4 4 5 5 5 5 6 7 7 7 7 7 7 7 8 9 10
8 10 10 7 5 11 13 14 15 16 14 11 8 7 6 7 7 7 8 8 8 7 7 6 5 4 4 4 4 4 4 5 5 5 6 6 6 6 7 7 7 7 8 8
6 7 8 8 8 10 11 13 14 14 12 10 6 4 5 7 7 8 8 8 8 7 6 5 5 4 4 4 4 4 4 4 4 4 4 5 5 6 6 6 6 7 7 7
7 7 8 9 9 10 12 12 12 12 10 10 9 5 9 9 8 7 7 7 7 6 6 5 4 3 3 3 3 4 5 5 4 4 4 4 5 5 6 6 6 6 5 5
6 7 7 8 9 13 4 2 6 7 5 4 2 6 7 8 8 7 6 6 6 6 5 4 4 3 3 4 4 4 5 5 5 4 4 4 5 5 6 6 5 4 4 4
6 7 7 8 11 8 6 5 6 7 5 3 6 8 10 12 11 8 5 5 6 5 4 4 4 4 4 4 4 4 5 5 5 4 4 4 5 5 5 6 6 5 5 4
7 7 8 8 11 10 5 6 2 5 6 5 7 10 12 12 8 7 6 6 7 6 5 5 5 5 4 4 4 5 5 5 4 3 3 3 4 5 5 5 5 5 5 5
10 9 11 10 9 4 5 3 6 9 4 5 6 8 9 5 5 10 9 8 7 7 6 6 5 5 4 4 5 6 5 5 4 3 4 4 5 6 6 5 5 6 6 6
8 8 9 9 10 5 4 3 2 4 4 4 5 7 9 11 12 12 10 9 8 8 7 7 6 6 5 5 6 6 6 5 5 6 6 6 6 6 7 7 7 7 7 8
3 2 1 2 2 6 4 4 4 2 3 4 6 9 11 12 12 12 10 9 8 8 8 7 8 8 7 6 6 7 6 6 7 8 8 8 9 8 8 7 7 7 6 6
3 1 2 2 4 4 4 4 4 3 4 6 8 10 11 12 13 12 10 9 8 8 8 8 9 9 8 8 8 8 7 7 9 10 10 9 10 10 9 7 7 7 6 6
1 3 3 3 4 5 4 4 5 6 8 10 10 11 12 13 13 12 10 9 9 8 8 8 9 10 9 9 9 9 8 9 10 11 10 10 10 10 11 11 10 9 9 7
2 2 3 1 3 2 5 4 5 7 9 10 11 12 12 12 13 12 11 10 9 9 9 10 10 10 10 10 10 9 8 9 10 10 9 8 8 9 9 11 12 19 15 18
Wind_Direction
187 206 210 209 217 243 235 225 211 195 183 232 230 234 223 204 210 204 194 189 188 191 184 182 184 185 186 188 188 188 188 186 185 186 188 194 193 195 195 195 189 190 193 191
189 219 219 217 214 226 225 224 217 194 189 242 234 236 230 214 211 210 202 197 192 186 179 181 185 186 188 189 190 191 191 190 191 192 193 198 197 198 195 196 190 197 197 198
206 210 204 205 205 213 219 223 218 207 200 224 239 229 206 195 204 204 208 205 199 192 184 183 186 189 189 191 191 191 192 192 194 192 191 194 194 201 195 199 196 200 199 201
221 196 192 201 206 210 216 219 228 222 227 209 225 235 191 190 198 203 204 203 201 197 190 185 187 190 194 192 191 193 192 194 194 192 195 196 199 201 201 199 197 195 200 203
207 200 197 206 205 209 219 201 217 222 230 239 213 247 190 178 205 201 199 202 202 196 190 187 189 191 193 191 190 193 193 196 196 197 198 202 209 210 202 199 199 199 198 204
207 197 207 211 204 202 192 184 195 220 228 229 219 237 214 183 204 191 183 188 192 190 187 185 187 186 189 189 190 191 193 196 197 198 200 206 211 210 204 202 198 200 200 202
201 198 202 207 194 191 198 194 190 199 211 221 186 231 225 128 153 184 175 179 181 182 180 180 182 183 184 189 190 191 194 197 199 201 203 208 212 211 208 205 203 204 204 202
193 196 194 199 203 188 203 211 219 210 207 186 179 225 164 130 136 148 161 165 168 172 167 173 179 183 186 187 190 191 196 201 201 202 205 209 211 212 210 208 207 203 209 207
198 194 184 198 207 206 199 217 234 249 227 216 184 189 174 173 182 174 163 162 165 165 163 168 173 177 183 186 189 193 196 201 202 204 206 209 210 212 210 206 208 206 204 206
205 193 177 184 197 213 216 207 213 232 218 220 199 206 191 177 185 174 171 167 154 156 157 160 163 169 174 178 185 187 188 197 201 202 205 206 207 208 207 206 208 206 204 206
212 204 173 182 199 191 198 205 213 222 238 237 208 179 129 168 167 168 160 152 152 155 153 151 151 155 159 163 168 173 178 187 193 198 200 203 203 204 204 205 206 206 205 203
210 220 193 188 190 213 203 206 207 215 216 247 258 138 113 136 145 148 140 137 136 144 142 140 139 141 145 153 161 168 174 181 187 190 193 197 198 199 202 205 207 207 204 204
192 215 197 184 184 197 209 211 216 226 226 230 238 155 128 141 141 136 134 136 137 142 140 136 133 133 138 145 152 159 173 181 185 186 192 194 194 195 202 205 205 205 205 206
209 216 227 209 191 183 197 202 212 219 226 225 233 192 157 162 156 144 139 141 140 142 141 136 132 130 130 136 145 158 165 170 173 183 188 190 191 194 196 197 200 205 204 202
217 216 226 237 204 195 200 201 204 218 232 239 221 206 175 162 159 147 144 143 138 139 141 138 135 128 135 139 139 141 145 149 161 174 180 186 188 188 188 189 191 194 195 197
218 225 213 216 207 209 213 212 210 215 226 233 223 187 125 131 137 139 147 148 143 140 137 134 131 136 147 151 147 141 139 145 155 164 171 174 178 177 180 180 180 182 184 188
198 209 211 209 196 203 211 210 210 211 216 224 220 177 146 142 138 136 140 145 141 137 130 126 124 126 140 148 150 149 145 147 148 151 152 155 161 165 167 164 164 173 175 171
218 214 216 208 196 217 179 162 221 213 215 225 162 137 143 127 115 108 121 133 131 125 118 114 114 113 128 138 147 149 143 142 138 139 141 142 145 148 149 149 150 150 154 157
218 220 222 214 211 209 172 174 193 201 203 190 165 145 132 128 125 107 95 105 108 106 107 105 103 110 109 113 127 138 137 135 132 129 132 137 146 145 146 147 146 141 139 134
190 221 227 216 221 218 164 137 188 216 191 146 157 154 153 169 173 129 119 112 105 100 99 99 98 99 105 107 121 124 121 117 112 113 119 125 135 139 141 138 137 135 133 127
186 200 219 217 221 193 85 134 195 217 144 129 154 158 167 164 86 116 121 112 107 101 95 94 95 93 92 99 112 111 104 98 95 100 101 99 105 111 114 114 118 122 121 113
208 199 208 219 222 180 95 173 209 53 71 122 140 141 130 111 111 119 117 111 106 98 93 91 90 84 80 90 104 102 93 90 92 89 84 85 86 90 98 100 101 105 111 109
237 297 237 261 60 68 67 63 58 72 96 112 125 126 128 126 124 120 115 108 99 93 89 87 89 84 75 76 87 91 85 89 93 88 84 82 82 78 83 91 96 98 99 102
153 204 202 176 123 102 87 81 78 88 102 111 122 126 130 126 123 120 114 107 99 93 91 92 91 84 75 72 74 77 82 88 93 90 85 83 83 80 74 72 74 78 81 94
143 196 197 178 133 125 109 85 85 92 103 110 115 121 126 123 121 118 113 108 101 95 90 88 86 84 81 81 78 79 85 92 94 92 91 89 86 85 77 68 53 60 52 46
215 239 247 135 125 119 110 104 111 111 111 114 117 118 119 118 119 116 111 107 102 96 93 90 87 85 84 83 80 81 87 96 100 98 96 93 95 95 95 94 80 59 62 59